Saipan, MP

5:45 AM ChST on October 01, 2016 (GMT +1000)
Saipan International

Weather History for PGSN - December, 2013

Change the Weather History Date:

Sunday, December 1, 2013

  Actual Average Record
Temperature  
Mean Temperature 82 °F -  
Max Temperature 87 °F 84 °F 88 °F (2012)
Min Temperature 75 °F 76 °F 73 °F (1997)
Cooling Degree Days 18    
Growing Degree Days 32 (Base 50)    
Moisture  
Dew Point 75 °F    
Average Humidity 80    
Maximum Humidity 97    
Minimum Humidity 67    
Precipitation  
Precipitation 0.24 in - - ()
Sea Level Pressure  
Sea Level Pressure 29.94 in    
Wind  
Wind Speed 15 mph (ENE)    
Max Wind Speed 21 mph    
Max Gust Speed 29 mph    
Visibility 10 miles    
Events Rain    
Averages and records for this station are not official NWS values.
T = Trace of Precipitation, MM = Missing Value Source: NWS Daily Summary

Daily Weather History Graph

Daily Weather History Graph

Search for Another Location

Airport or City:

Trip Planner

Search our weather history database for the weather conditions in past years. The results will help you decide how hot, cold, wet, or windy it might be!

Date:

Astronomy

Dec. 01, 2013 Rise Set
Actual Time 6:27 AM ChST 5:45 PM ChST
Civil Twilight 6:03 AM ChST 6:08 PM ChST
Nautical Twilight 5:37 AM ChST 6:34 PM ChST
Astronomical Twilight 5:11 AM ChST 7:00 PM ChST
Moon 4:18 AM ChST (12/1) 4:10 PM ChST (12/1)
Length of Visible Light 12h 04m
Length of Day
11h 18m
Waning Crescent, 5% of the Moon is Illuminated
Dec 1
Waning Crescent
Dec 3
New
Dec 10
First Quarter
Dec 17
Full
Dec 25
Last Quarter

Hourly Weather History & Observations

Time (ChST) Temp. Heat Index Dew Point Humidity Pressure Visibility Wind Dir Wind Speed Gust Speed Precip Events Conditions
12:01 AM 80.6 °F 85.4 °F 73.4 °F 79% 29.91 in 10.0 mi ENE 15.0 mph - N/A   Overcast
12:25 AM 80.6 °F 85.4 °F 73.4 °F 79% 29.91 in 10.0 mi ENE 13.8 mph - N/A   Mostly Cloudy
12:54 AM 81.0 °F 86.2 °F 73.9 °F 79% 29.96 in 10.0 mi ENE 15.0 mph - N/A   Scattered Clouds
1:54 AM 80.1 °F 84.2 °F 73.0 °F 79% 29.95 in 10.0 mi ENE 12.7 mph - N/A   Scattered Clouds
2:54 AM 80.1 °F 84.2 °F 73.0 °F 79% 29.94 in 10.0 mi ENE 12.7 mph - N/A   Scattered Clouds
3:54 AM 80.1 °F 84.2 °F 73.0 °F 79% 29.92 in 10.0 mi ENE 13.8 mph - N/A   Scattered Clouds
4:54 AM 80.1 °F 83.8 °F 72.0 °F 76% 29.94 in 10.0 mi ENE 12.7 mph - N/A   Partly Cloudy
5:54 AM 79.0 °F - 72.0 °F 79% 29.95 in 10.0 mi ENE 11.5 mph - N/A   Scattered Clouds
6:54 AM 80.1 °F 84.2 °F 73.0 °F 79% 29.97 in 10.0 mi ENE 15.0 mph 19.6 mph N/A   Scattered Clouds
7:54 AM 82.0 °F 87.4 °F 73.0 °F 74% 29.98 in 10.0 mi ENE 17.3 mph - N/A   Scattered Clouds
8:54 AM 84.0 °F 90.2 °F 73.0 °F 69% 29.99 in 10.0 mi East 15.0 mph - N/A   Scattered Clouds
9:54 AM 84.9 °F 92.1 °F 73.9 °F 69% 29.99 in 10.0 mi ENE 16.1 mph - N/A   Scattered Clouds
10:54 AM 86.0 °F 93.8 °F 73.9 °F 67% 29.97 in 10.0 mi East 20.7 mph - N/A   Partly Cloudy
11:54 AM 86.0 °F 95.1 °F 75.0 °F 70% 29.95 in 10.0 mi ENE 16.1 mph - N/A   Partly Cloudy
12:54 PM 86.0 °F 95.1 °F 75.0 °F 70% 29.93 in 10.0 mi ENE 17.3 mph 24.2 mph N/A   Scattered Clouds
1:54 PM 87.1 °F 97.3 °F 75.9 °F 69% 29.91 in 10.0 mi ENE 18.4 mph 23.0 mph N/A   Partly Cloudy
2:54 PM 84.9 °F 94.1 °F 75.9 °F 74% 29.91 in 10.0 mi ENE 19.6 mph - N/A   Scattered Clouds
3:54 PM 84.0 °F 91.9 °F 75.0 °F 74% 29.91 in 10.0 mi ENE 17.3 mph 23.0 mph N/A   Mostly Cloudy
4:54 PM 82.9 °F 90.2 °F 75.0 °F 77% 29.92 in 10.0 mi NE 15.0 mph - N/A   Mostly Cloudy
5:54 PM 81.0 °F 86.7 °F 75.0 °F 82% 29.95 in 10.0 mi NE 12.7 mph 20.7 mph N/A   Mostly Cloudy
6:54 PM 80.1 °F 85.1 °F 75.0 °F 85% 29.95 in 10.0 mi NE 11.5 mph - N/A   Mostly Cloudy
7:25 PM 80.6 °F 86.2 °F 75.2 °F 84% 29.90 in 10.0 mi NE 11.5 mph - 0.00 in Rain Light Rain
7:45 PM 78.8 °F - 75.2 °F 89% 29.91 in 7.0 mi ENE 17.3 mph 28.8 mph 0.13 in Rain Light Rain
7:54 PM 78.1 °F - 75.9 °F 93% 29.97 in 10.0 mi ENE 13.8 mph - 0.13 in   Overcast
8:29 PM 78.8 °F - 75.2 °F 89% 29.92 in 6.0 mi ENE 15.0 mph - 0.00 in Rain Light Rain
8:54 PM 78.1 °F - 77.0 °F 96% 29.98 in 10.0 mi ENE 13.8 mph - 0.00 in   Mostly Cloudy
9:13 PM 78.8 °F - 77.0 °F 94% 29.92 in 10.0 mi ENE 16.1 mph - N/A   Overcast
9:54 PM 79.0 °F - 77.0 °F 94% 29.97 in 10.0 mi East 13.8 mph - N/A   Mostly Cloudy
10:54 PM 79.0 °F - 75.9 °F 90% 29.97 in 10.0 mi East 17.3 mph 24.2 mph 0.00 in Rain Light Rain
11:54 PM 75.9 °F - 75.0 °F 97% 29.98 in 3.0 mi East 18.4 mph 27.6 mph 0.11 in Rain Rain